SCP
0 0 0 0 0 0 0 0 0 0 0 0 0 0 0 0 0 0 0 0 0 0 0 0 0 0 0 0 0 0 0 0 0 0 0 0 0 0 0 0 0 0 0 0
0 0 0 0 0 0 0 0 0 0 0 0 0 0 0 0 0 0 0 0 0 0 0 0 0 0 0 0 0 0 0 0 0 0 0 0 0 0 0 0 0 0 0 0
0 0 0 0 0 0 0 0 0 0 0 0 0 0 0 0 0 0 0 0 0 0 0 0 0 0 0 0 0 0 0 0 0 0 0 0 0 0 0 0 0 0 0 0
0 0 0 0 0 0 0 0 0 0 0 0 0 0 0 0 0 0 0 0 0 0 0 0 0 0 0 0 0 0 0 0 0 0 0 0 0 0 0 0 0 0 0 0
0 0 0 0 0 0 0 0 0 0 0 0 0 0 0 0 0 0 0 0 0 0 0 0 0 0 0 0 0 0 0 0 0 0 0 0 0 0 0 0 0 0 0 0
0 0 0 0 0 0 0 0 0 0 0 0 0 0 0 0 0 0 0 0 0 0 0 0 0 0 0 0 0 0 0 0 0 0 0 0 0 0 0 0 0 0 0 0
0 0 0 0 0 0 0 0 0 0 0 0 0 0 0 0 0 0 0 0 0 0 0 0 0 0 0 0 0 0 0 0 0 0 0 0 0 0 0 0 0 0 0 0
0 0 0 0 0 0 0 0 0 0 0 0 0 0 0 0 0 0 0 0 0 0 0 0 0 0 0 0 0 0 0 0 0 0 0 0 0 0 0 0 0 0 0 0
0 0 0 0 0 0 0 0 0 0 0 0 0 0 0 0 0 0 0 0 0 0 0 0 0 0 0 0 0 0 0 0 0 0 0 0 0 0 0 0 0 0 0 0
0 0 0 0 0 0 0 0 0 0 0 0 0 0 0 0 0 0 0 0 0 0 0 0 0 0 0 0 0 0 0 0 0 0 0 0 0 0 0 0 0 0 0 0
0 0 0 0 0 0 0 0 0 0 0 0 0 0 0 0 0 0 0 0 0 0 0 0 0 0 0 0 0 0 0 0 0 0 0 0 0 0 0 0 0 0 0 0
0 0 0 0 0 0 0 0 0 0 0 0 0 0 0 0 0 0 0 0 0 0 0 0 0 0 0 0 0 0 0 0 0 0 0 0 0 0 0 0 0 0 0 0
0 0 0 0 0 0 0 0 0 0 0 0 0 0 0 0 0 0 0 0 0 0 0 0 0 0 0 0 0 0 0 0 0 0 0 0 0 0 0 0 0 0 0 0
-0 0 0 0 0 0 0 0 0 0 0 0 0 0 0 0 0 0 0 0 0 0 0 0 0 0 0 0 0 0 0 0 0 0 0 0 0 0 0 0 0 0 0 0
0 0 0 0 0 0 0 -0 -0 -0 -0 -0 0 0 0 0 0 0 0 0 0 -0 0 0 0 0 0 0 0 0 0 0 0 0 0 0 0 0 0 0 0 0 0 0
0 0 0 0 0 0 0 0 -0 -0 -0 0 0 0 0 0 0 0 0 -0 -0 -0 0 0 0 0 0 0 0 0 0 0 0 0 0 0 0 0 0 0 0 0 0 0
0 0 0 0 0 0 0 0 0 0 0 0 0 0 0 0 0 0 0 0 0 0 0 0 0 0 0 0 0 0 0 0 0 0 0 0 0 0 0 0 0 0 0 0
0 0 0 0 0 0 0 0 0 0 0 0 0 0 0 0 0 0 0 0 0 0 0 0 0 0 0 0 0 0 0 0 0 0 0 0 0 0 0 0 0 0 0 0
0 0 0 0 0 0 0 0 0 0 0 0 0 0 0 0 0 0 0 0 0 0 0 0 0 0 0 0 0 0 0 0 0 0 0 0 0 0 0 0 0 0 0 0
0 0 0 0 0 0 0 0 0 0 0 0 0 0 0 0 0 0 0 0 0 0 0 0 0 0 0 0 0 0 0 0 0 0 0 0 0 0 0 0 0 0 0 0
0 0 0 0 -0 0 0 0 0 0 0 0 0 0 0 0 0 0 0 0 0 0 0 0 0 0 0 0 0 0 0 0 0 0 0 0 0 0 0 0 0 0 0 0
0 0 0 0 -0 -0 0 0 0 0 0 0 0 0 0 0 0 0 0 0 0 0 0 0 0 0 0 0 0 0 0 0 0 0 0 0 0 0 0 0 0 0 0 0
0 0 0 0 -0 -0 -0 0 0 0 0 -0 0 0 0 0 0 0 0 0 0 0 0 0 0 0 0 0 0 0 0 0 0 0 0 0 0 0 0 0 0 0 0 0
0 0 0 0 0 0 0 0 0 0 0 0 0 0 0 0 0 0 0 0 0 0 0 0 0 0 0 0 0 0 0 0 0 0 0 0 0 0 0 0 0 0 0 0
0 0 0 0 0 0 0 0 0 0 0 0 0 0 0 0 0 0 0 0 0 0 0 0 0 0 0 0 0 0 0 0 0 0 0 0 0 0 0 0 0 0 0 0
0 0 0 0 0 0 0 0 0 0 0 0 0 0 0 0 0 0 0 0 0 0 0 0 0 0 0 0 0 0 0 0 0 0 0 0 0 0 0 0 0 0 0 0
0 0 0 0 0 0 0 0 0 0 0 0 0 0 0 0 0 0 0 0 0 0 0 0 0 0 0 0 0 0 0 0 0 0 0 0 0 0 0 0 0 0 0 0
Wind_Speed
3 2 2 4 5 7 9 8 9 8 7 8 6 5 4 3 3 2 2 2 3 3 2 2 2 1 1 2 2 2 3 2 2 2 2 1 1 2 2 2 3 3 3 4
2 1 1 4 6 7 8 7 8 6 8 5 2 2 3 3 3 3 3 2 2 3 3 3 2 2 1 1 1 2 3 2 1 1 1 1 2 2 2 3 3 3 4 4
3 1 2 6 8 9 6 6 7 11 9 3 2 4 4 4 4 4 3 2 2 2 3 2 2 2 2 2 1 2 1 1 1 1 1 2 2 2 2 3 3 4 4 4
1 1 6 7 1 5 5 3 4 3 2 3 3 2 2 2 3 2 2 2 2 2 2 2 2 2 2 2 2 1 1 0 1 1 2 2 2 3 3 3 3 4 5 5
2 3 7 6 2 3 4 4 3 5 4 2 4 4 2 1 2 2 2 2 2 2 2 2 2 2 3 2 2 1 1 1 2 1 2 2 3 3 3 3 4 4 5 5
3 3 7 5 1 1 3 4 3 5 5 4 4 2 3 1 3 3 3 3 3 2 3 2 2 3 3 2 2 1 1 2 2 2 2 3 3 3 3 3 4 5 6 5
4 5 8 4 2 2 3 5 2 4 5 5 4 3 3 3 3 4 4 3 3 3 3 2 2 3 3 1 0 1 2 2 2 2 3 3 3 3 3 4 4 4 6 6
4 5 8 2 2 4 4 0 2 2 3 4 4 4 4 4 4 4 4 3 3 3 2 2 2 2 2 0 1 1 1 2 2 3 3 3 2 3 3 3 4 4 5 6
7 6 2 2 2 1 1 1 1 2 2 5 5 4 4 4 3 3 3 3 2 3 2 2 1 2 1 1 1 1 1 2 3 3 3 3 3 4 3 3 3 4 4 5
3 4 2 1 1 2 1 1 1 2 3 4 4 4 4 4 3 3 2 2 2 2 2 1 1 1 0 1 1 1 1 2 3 3 3 3 3 3 3 3 4 4 5 5
3 3 1 2 1 1 1 3 3 3 3 4 5 4 4 3 3 2 2 1 1 1 1 1 1 1 1 1 0 1 2 2 3 3 3 3 3 3 4 4 5 6 5 5
5 4 3 2 1 1 2 2 2 3 3 3 3 4 3 3 2 2 1 1 1 1 0 1 1 2 2 1 1 1 2 2 2 2 3 3 3 4 7 8 11 12 11 10
3 1 1 0 1 2 2 2 2 2 3 3 2 3 3 2 2 2 1 1 1 1 1 1 1 2 2 2 1 2 2 3 2 3 3 3 3 4 5 7 9 11 12 13
1 2 1 1 1 2 3 4 4 4 3 3 2 2 2 2 2 1 1 1 1 1 1 1 2 3 3 2 2 2 2 4 3 3 3 3 4 4 4 5 6 6 9 13
3 1 2 3 4 4 4 4 5 4 3 3 2 2 2 2 1 0 1 0 0 1 1 2 2 3 3 2 2 3 3 3 3 3 3 3 4 4 4 5 5 6 6 8
2 4 4 4 4 3 4 4 3 2 2 2 2 2 2 1 1 1 1 1 0 2 2 2 3 4 3 3 3 3 3 5 4 3 3 3 4 4 4 5 5 5 6 6
3 2 2 2 2 2 2 2 2 1 1 1 1 1 1 2 1 2 2 2 2 3 3 3 4 4 3 3 3 3 3 4 6 4 3 4 4 4 4 5 5 6 6 8
1 1 2 2 2 2 2 2 1 1 1 0 1 1 1 1 1 2 3 3 3 3 3 3 4 4 3 3 3 2 3 3 3 3 4 4 4 4 4 5 6 7 6 8
3 3 3 3 2 2 2 1 1 1 1 1 1 0 0 1 1 2 2 2 2 3 4 4 6 4 3 4 4 2 3 3 4 4 4 7 6 5 5 5 6 6 7 6
3 4 4 3 3 2 2 1 1 1 1 1 1 0 1 2 2 2 2 2 3 3 4 5 4 4 4 4 5 2 3 4 4 4 4 4 5 5 5 6 6 6 6 6
3 3 3 3 2 2 2 1 1 1 1 1 0 0 1 2 2 2 2 3 3 4 5 7 4 4 4 4 4 2 3 4 4 4 4 5 5 6 6 6 6 6 6 6
2 2 2 2 2 2 2 1 1 1 1 1 1 1 1 2 2 2 2 3 4 7 5 3 4 6 7 5 2 3 3 4 4 4 4 5 5 6 6 6 6 6 6 6
1 1 1 1 1 1 2 2 1 1 1 1 1 1 2 2 2 2 3 3 3 7 5 4 7 10 9 4 2 3 3 4 4 5 5 5 5 5 6 6 6 6 6 6
1 1 1 1 1 1 2 2 2 1 1 2 2 2 2 2 2 2 3 6 8 8 4 7 10 10 8 2 3 3 4 4 4 5 5 5 5 5 5 6 6 6 6 7
1 1 1 1 1 1 1 2 2 2 2 2 3 3 2 2 3 3 3 4 7 7 4 7 10 10 5 3 3 4 4 4 5 4 4 5 5 5 5 6 6 6 6 6
1 1 0 0 0 1 1 1 1 2 2 2 3 3 2 2 3 3 3 4 5 7 5 4 5 6 4 4 4 4 4 5 6 5 5 5 6 6 6 6 7 6 6 6
1 1 1 1 1 1 1 1 1 2 2 3 3 3 3 3 3 3 4 4 4 4 4 4 4 4 4 4 5 5 4 4 5 5 5 5 5 5 6 7 7 7 6 7
Wind_Direction
255 273 174 208 214 192 196 202 208 225 222 240 225 204 196 179 164 159 170 164 165 167 167 160 155 157 158 166 171 170 164 174 199 207 209 227 252 265 273 281 285 281 283 287
275 267 218 270 252 220 221 221 226 242 259 253 219 142 161 177 175 180 193 191 175 163 159 166 172 170 158 165 169 154 161 186 208 210 225 248 259 265 274 280 284 284 282 282
259 307 6 269 237 207 205 209 200 225 235 162 160 184 187 182 172 179 189 177 166 164 167 173 174 162 158 162 138 135 155 191 216 226 247 261 273 282 281 282 285 283 284 282
228 73 236 245 205 184 191 227 206 203 185 170 180 165 134 150 162 167 155 142 133 129 124 115 115 117 110 103 107 106 87 298 269 260 266 281 284 283 283 281 280 280 284 281
174 222 269 286 245 171 180 254 214 195 195 143 99 72 12 19 126 143 145 141 131 119 109 100 105 113 102 84 80 72 19 324 308 292 283 288 289 288 285 286 286 282 286 284
171 202 239 257 274 248 122 270 229 174 181 165 135 157 242 139 100 101 99 101 97 89 86 86 87 102 101 88 72 24 323 315 316 310 298 289 285 287 286 284 286 293 298 293
202 227 260 277 292 112 167 248 189 169 174 166 180 197 155 126 108 106 101 97 95 90 82 77 87 101 102 90 8 311 329 334 331 320 303 289 288 290 291 294 299 297 296 296
179 209 253 276 125 173 213 190 128 141 147 139 136 127 129 126 119 110 102 97 100 97 77 56 80 107 106 32 310 331 345 343 331 319 309 312 300 298 298 295 297 296 297 298
192 213 251 181 185 203 120 130 137 135 137 135 136 140 133 125 122 116 112 111 108 112 89 51 61 116 135 301 324 347 349 329 319 320 317 317 309 302 302 296 291 294 292 293
234 263 266 272 309 354 27 146 138 135 140 138 142 143 137 134 128 121 117 120 113 106 92 25 12 39 237 298 344 357 319 311 314 317 317 316 309 304 299 292 288 289 289 291
243 264 321 312 294 314 39 66 79 81 100 128 136 142 148 144 143 141 131 121 117 120 135 293 329 327 324 336 11 320 303 302 308 310 304 305 304 291 296 277 280 291 286 286
232 223 208 253 316 85 103 95 105 101 87 93 127 144 143 145 149 142 137 123 116 133 162 293 315 309 310 308 283 276 297 298 292 295 296 298 301 306 308 306 309 307 306 304
237 259 180 163 43 63 92 92 90 102 123 114 101 124 133 139 136 129 133 148 183 211 238 270 293 298 298 293 283 264 270 285 287 293 297 299 301 303 308 313 314 314 314 314
20 77 93 57 64 68 87 86 83 74 75 90 97 99 105 110 115 127 171 219 218 236 268 279 288 289 288 282 278 278 277 283 290 281 285 290 292 294 296 303 309 309 314 316
357 38 134 100 85 76 77 88 87 76 69 62 71 85 95 105 115 194 256 277 289 283 289 292 288 288 295 282 282 281 279 276 281 282 283 286 291 293 294 295 297 301 304 311
47 75 91 95 95 83 78 86 95 86 77 75 68 62 63 77 54 351 347 10 322 278 284 283 280 285 294 289 290 283 278 291 299 292 290 293 293 294 295 295 295 297 298 302
101 99 97 102 109 95 87 94 113 116 101 98 81 61 60 57 36 1 341 335 305 281 278 274 281 289 289 284 275 275 279 289 301 300 291 290 290 290 290 291 291 292 291 297
105 114 127 138 134 120 88 71 84 95 112 158 96 84 74 51 326 313 317 324 325 314 295 285 285 289 285 281 274 270 274 277 282 285 290 291 291 288 288 287 288 290 292 298
76 82 82 82 93 106 101 78 58 51 36 87 109 100 321 302 298 301 307 314 310 306 303 299 308 314 293 286 294 272 280 284 286 287 288 296 300 292 288 288 288 289 291 293
64 69 73 69 65 81 85 66 59 42 39 101 105 61 343 320 313 311 313 298 279 277 289 303 310 298 290 287 298 274 274 277 281 286 288 286 288 289 289 289 289 289 290 291
69 69 73 73 62 54 56 61 67 42 35 74 119 266 295 308 312 310 314 307 303 302 304 313 315 296 289 298 301 283 276 279 280 282 286 288 289 289 289 290 291 292 293 293
72 76 76 75 71 44 25 28 38 33 26 11 344 319 316 317 320 310 279 269 290 311 318 302 296 298 309 316 297 286 281 280 280 281 282 284 286 289 290 292 291 292 293 293
81 88 84 78 73 36 18 20 16 13 350 330 313 303 295 292 289 290 298 298 297 309 317 298 305 312 320 325 306 293 292 290 288 286 284 283 284 286 288 291 291 292 293 294
84 77 66 59 72 67 24 351 351 347 329 310 300 289 285 296 297 274 272 303 314 316 310 305 314 318 327 326 306 296 292 290 288 288 290 290 288 287 287 288 290 292 292 292
92 85 81 83 70 8 335 343 348 339 331 320 316 311 296 270 273 293 300 297 308 318 312 313 321 327 329 307 298 293 290 287 289 292 289 292 292 291 289 289 290 291 292 292
92 91 53 328 291 298 312 323 321 317 317 316 317 311 306 299 291 294 299 301 303 314 315 308 311 317 312 303 296 293 291 296 303 301 295 293 292 292 293 294 293 291 291 291
65 52 36 17 357 338 322 313 305 303 301 296 301 306 308 310 309 308 307 306 306 308 307 307 306 303 302 302 300 297 294 292 291 291 291 291 291 290 292 292 292 292 292 291